Tabellarische Ansicht des 28.6.2022


Die einzelnen Werte des Tages

Uhrzeit Temperatur Luftdruck Luftfeuchte Wind Hi-Wind Taupunkt THW Index Wind Chill Heat Index Solar- strahlung Regen

00:00

16.6 C

1015.8 hpa

90 %

6.4 km/h aus 117

20.9 km/h aus SW

14.9 C

16.8 C

16.6 C

16.8 C

0 W/m

0.00 mm

00:05

16.6 C

1015.8 hpa

90 %

3.2 km/h aus 116

8.0 km/h aus SW

14.9 C

16.8 C

16.6 C

16.8 C

0 W/m

0.00 mm

00:10

16.5 C

1015.8 hpa

90 %

1.6 km/h aus 115

6.4 km/h aus WSW

14.9 C

16.8 C

16.5 C

16.8 C

0 W/m

0.00 mm

00:15

16.5 C

1015.8 hpa

90 %

1.6 km/h aus 114

8.0 km/h aus WSW

14.9 C

16.8 C

16.5 C

16.8 C

0 W/m

0.00 mm

00:20

16.4 C

1015.8 hpa

90 %

4.8 km/h aus 117

12.9 km/h aus SSW

14.8 C

16.7 C

16.4 C

16.7 C

0 W/m

0.00 mm

00:25

16.4 C

1015.8 hpa

90 %

4.8 km/h aus 117

19.3 km/h aus SSW

14.7 C

16.7 C

16.4 C

16.7 C

0 W/m

0.00 mm

00:30

16.3 C

1015.9 hpa

90 %

6.4 km/h aus 117

22.5 km/h aus WSW

14.7 C

16.6 C

16.3 C

16.6 C

0 W/m

0.00 mm

00:35

16.3 C

1015.9 hpa

90 %

3.2 km/h aus 114

14.5 km/h aus W

14.6 C

16.5 C

16.3 C

16.5 C

0 W/m

0.00 mm

00:40

16.2 C

1015.9 hpa

90 %

4.8 km/h aus 117

19.3 km/h aus SW

14.6 C

16.4 C

16.2 C

16.4 C

0 W/m

0.00 mm

00:45

16.2 C

1016.0 hpa

90 %

4.8 km/h aus 117

17.7 km/h aus WSW

14.6 C

16.4 C

16.2 C

16.4 C

0 W/m

0.00 mm

00:50

16.2 C

1016.0 hpa

90 %

4.8 km/h aus 115

17.7 km/h aus WSW

14.5 C

16.4 C

16.2 C

16.4 C

0 W/m

0.00 mm

00:55

16.2 C

1016.0 hpa

90 %

6.4 km/h aus 116

19.3 km/h aus SW

14.5 C

16.4 C

16.2 C

16.4 C

0 W/m

0.00 mm

01:00

16.2 C

1016.1 hpa

90 %

8.0 km/h aus 114

20.9 km/h aus W

14.5 C

16.4 C

16.2 C

16.4 C

0 W/m

0.00 mm

01:05

16.1 C

1016.1 hpa

90 %

4.8 km/h aus 117

19.3 km/h aus WSW

14.5 C

16.3 C

16.1 C

16.3 C

0 W/m

0.00 mm

01:10

16.0 C

1016.1 hpa

90 %

11.3 km/h aus 116

24.1 km/h aus W

14.4 C

15.9 C

15.7 C

16.2 C

0 W/m

0.00 mm

01:15

15.9 C

1016.4 hpa

90 %

12.9 km/h aus 117

25.7 km/h aus W

14.3 C

15.3 C

15.1 C

16.1 C

0 W/m

0.00 mm

01:20

15.8 C

1016.4 hpa

90 %

11.3 km/h aus 115

24.1 km/h aus W

14.2 C

15.7 C

15.4 C

16.1 C

0 W/m

0.00 mm

01:25

15.8 C

1016.4 hpa

90 %

4.8 km/h aus 114

17.7 km/h aus W

14.2 C

16.1 C

15.8 C

16.1 C

0 W/m

0.00 mm

01:30

15.8 C

1016.4 hpa

90 %

3.2 km/h aus 117

16.1 km/h aus W

14.1 C

15.9 C

15.8 C

15.9 C

0 W/m

0.00 mm

01:35

15.7 C

1016.4 hpa

89 %

1.6 km/h aus 117

6.4 km/h aus WSW

13.9 C

15.9 C

15.7 C

15.9 C

0 W/m

0.00 mm

01:40

15.7 C

1016.4 hpa

89 %

1.6 km/h aus 118

9.7 km/h aus SSW

13.9 C

15.8 C

15.7 C

15.8 C

0 W/m

0.00 mm

01:45

15.6 C

1016.4 hpa

89 %

1.6 km/h aus 114

8.0 km/h aus WSW

13.8 C

15.8 C

15.6 C

15.8 C

0 W/m

0.00 mm

01:50

15.6 C

1016.4 hpa

89 %

0.0 km/h aus 115

0.0 km/h aus ---

13.7 C

15.7 C

15.6 C

15.7 C

0 W/m

0.00 mm

01:55

15.6 C

1016.4 hpa

89 %

0.0 km/h aus 117

0.0 km/h aus ---

13.7 C

15.7 C

15.6 C

15.7 C

0 W/m

0.00 mm

02:00

15.5 C

1016.5 hpa

89 %

0.0 km/h aus 116

0.0 km/h aus ---

13.7 C

15.7 C

15.5 C

15.7 C

0 W/m

0.00 mm

02:05

15.4 C

1016.5 hpa

89 %

0.0 km/h aus 117

4.8 km/h aus WSW

13.6 C

15.6 C

15.4 C

15.6 C

0 W/m

0.00 mm

02:10

15.4 C

1016.5 hpa

89 %

1.6 km/h aus 114

4.8 km/h aus WSW

13.6 C

15.5 C

15.4 C

15.5 C

0 W/m

0.00 mm

02:15

15.3 C

1016.9 hpa

89 %

1.6 km/h aus 116

6.4 km/h aus SSW

13.5 C

15.4 C

15.3 C

15.4 C

0 W/m

0.00 mm

02:20

15.2 C

1016.9 hpa

89 %

6.4 km/h aus 116

17.7 km/h aus WSW

13.4 C

15.3 C

15.2 C

15.3 C

0 W/m

0.00 mm

02:25

15.1 C

1016.9 hpa

89 %

1.6 km/h aus 117

9.7 km/h aus WSW

13.3 C

15.2 C

15.1 C

15.2 C

0 W/m

0.00 mm

02:30

15.0 C

1017.1 hpa

89 %

1.6 km/h aus 116

4.8 km/h aus WSW

13.2 C

15.1 C

15.0 C

15.1 C

0 W/m

0.00 mm

02:35

14.9 C

1017.1 hpa

89 %

1.6 km/h aus 114

4.8 km/h aus WSW

13.1 C

14.9 C

14.9 C

14.9 C

0 W/m

0.00 mm

02:40

14.8 C

1017.1 hpa

89 %

0.0 km/h aus 116

3.2 km/h aus WSW

13.0 C

14.9 C

14.8 C

14.9 C

0 W/m

0.00 mm

02:45

14.8 C

1017.4 hpa

89 %

0.0 km/h aus 117

1.6 km/h aus WSW

13.0 C

14.8 C

14.8 C

14.8 C

0 W/m

0.00 mm

02:50

14.7 C

1017.4 hpa

89 %

0.0 km/h aus 116

3.2 km/h aus WSW

12.9 C

14.8 C

14.7 C

14.8 C

0 W/m

0.00 mm

02:55

14.7 C

1017.4 hpa

89 %

0.0 km/h aus 115

1.6 km/h aus WSW

12.9 C

14.8 C

14.7 C

14.8 C

0 W/m

0.00 mm

03:00

14.6 C

1017.6 hpa

89 %

0.0 km/h aus 114

0.0 km/h aus ---

12.8 C

14.7 C

14.6 C

14.7 C

0 W/m

0.00 mm

03:05

14.6 C

1017.6 hpa

89 %

0.0 km/h aus 116

0.0 km/h aus ---

12.8 C

14.6 C

14.6 C

14.6 C

0 W/m

0.00 mm

03:10

14.4 C

1017.6 hpa

89 %

0.0 km/h aus 116

0.0 km/h aus ---

12.7 C

14.5 C

14.4 C

14.5 C

0 W/m

0.00 mm

03:15

14.3 C

1017.9 hpa

89 %

0.0 km/h aus 117

0.0 km/h aus ---

12.5 C

14.4 C

14.3 C

14.4 C

0 W/m

0.00 mm

03:20

14.2 C

1017.9 hpa

89 %

0.0 km/h aus 115

0.0 km/h aus ---

12.4 C

14.3 C

14.2 C

14.3 C

0 W/m

0.00 mm

03:25

14.2 C

1017.9 hpa

89 %

0.0 km/h aus 115

0.0 km/h aus ---

12.4 C

14.2 C

14.2 C

14.2 C

0 W/m

0.00 mm

03:30

14.0 C

1017.9 hpa

88 %

0.0 km/h aus 117

0.0 km/h aus ---

12.0 C

14.0 C

14.0 C

14.0 C

0 W/m

0.00 mm

03:35

13.8 C

1017.9 hpa

88 %

0.0 km/h aus 116

0.0 km/h aus ---

11.9 C

13.8 C

13.8 C

13.8 C

0 W/m

0.00 mm

03:40

13.7 C

1017.9 hpa

88 %

0.0 km/h aus 117

0.0 km/h aus ---

11.8 C

13.7 C

13.7 C

13.7 C

0 W/m

0.00 mm

03:45

13.6 C

1017.6 hpa

88 %

0.0 km/h aus 115

0.0 km/h aus ---

11.7 C

13.6 C

13.6 C

13.6 C

0 W/m

0.00 mm

03:50

13.4 C

1017.6 hpa

88 %

0.0 km/h aus 113

0.0 km/h aus ---

11.5 C

13.4 C

13.4 C

13.4 C

0 W/m

0.00 mm

03:55

13.3 C

1017.6 hpa

88 %

0.0 km/h aus 117

0.0 km/h aus ---

11.3 C

13.3 C

13.3 C

13.3 C

0 W/m

0.00 mm

04:00

13.2 C

1017.7 hpa

88 %

0.0 km/h aus 117

0.0 km/h aus ---

11.2 C

13.2 C

13.2 C

13.2 C

0 W/m

0.00 mm

04:05

13.1 C

1017.7 hpa

88 %

0.0 km/h aus 116

0.0 km/h aus ---

11.1 C

13.1 C

13.1 C

13.1 C

0 W/m

0.00 mm

04:10

12.9 C

1017.7 hpa

88 %

0.0 km/h aus 115

0.0 km/h aus ---

11.0 C

12.9 C

12.9 C

12.9 C

0 W/m

0.00 mm

04:15

12.9 C

1017.6 hpa

89 %

0.0 km/h aus 115

0.0 km/h aus ---

11.2 C

13.0 C

12.9 C

13.0 C

0 W/m

0.00 mm

04:20

12.9 C

1017.6 hpa

89 %

0.0 km/h aus 117

0.0 km/h aus ---

11.2 C

13.0 C

12.9 C

13.0 C

0 W/m

0.00 mm

04:25

12.9 C

1017.6 hpa

89 %

0.0 km/h aus 117

0.0 km/h aus ---

11.2 C

13.0 C

12.9 C

13.0 C

0 W/m

0.00 mm

04:30

12.9 C

1017.7 hpa

89 %

3.2 km/h aus 116

6.4 km/h aus WSW

11.2 C

13.0 C

12.9 C

13.0 C

0 W/m

0.00 mm

04:35

12.9 C

1017.7 hpa

89 %

3.2 km/h aus 114

6.4 km/h aus WSW

11.1 C

12.9 C

12.9 C

12.9 C

0 W/m

0.00 mm

04:40

12.8 C

1017.7 hpa

89 %

1.6 km/h aus 115

6.4 km/h aus WSW

11.1 C

12.9 C

12.8 C

12.9 C

0 W/m

0.00 mm

04:45

12.8 C

1017.8 hpa

90 %

1.6 km/h aus 117

4.8 km/h aus WSW

11.2 C

12.8 C

12.8 C

12.8 C

0 W/m

0.00 mm

04:50

12.8 C

1017.8 hpa

90 %

0.0 km/h aus 117

0.0 km/h aus ---

11.2 C

12.8 C

12.8 C

12.8 C

0 W/m

0.00 mm

04:55

12.7 C

1017.8 hpa

90 %

0.0 km/h aus 117

0.0 km/h aus ---

11.1 C

12.8 C

12.7 C

12.8 C

0 W/m

0.00 mm

05:00

12.7 C

1017.9 hpa

90 %

0.0 km/h aus 115

0.0 km/h aus ---

11.1 C

12.7 C

12.7 C

12.7 C

2 W/m

0.00 mm

05:05

12.6 C

1017.9 hpa

89 %

0.0 km/h aus 115

0.0 km/h aus ---

10.8 C

12.6 C

12.6 C

12.6 C

5 W/m

0.00 mm

05:10

12.4 C

1017.9 hpa

89 %

0.0 km/h aus 116

0.0 km/h aus ---

10.7 C

12.5 C

12.4 C

12.5 C

7 W/m

0.00 mm

05:15

12.4 C

1018.0 hpa

90 %

0.0 km/h aus 117

0.0 km/h aus ---

10.8 C

12.4 C

12.4 C

12.4 C

9 W/m

0.00 mm

05:20

12.3 C

1018.0 hpa

90 %

1.6 km/h aus 117

6.4 km/h aus WSW

10.7 C

12.3 C

12.3 C

12.3 C

12 W/m

0.00 mm

05:25

12.2 C

1018.0 hpa

90 %

4.8 km/h aus 116

8.0 km/h aus WSW

10.6 C

12.3 C

12.2 C

12.3 C

15 W/m

0.00 mm

05:30

12.2 C

1018.0 hpa

90 %

4.8 km/h aus 114

9.7 km/h aus SW

10.6 C

12.2 C

12.2 C

12.2 C

18 W/m

0.00 mm

05:35

12.2 C

1018.0 hpa

90 %

6.4 km/h aus 116

9.7 km/h aus SW

10.6 C

11.9 C

11.9 C

12.2 C

19 W/m

0.00 mm

05:40

12.2 C

1018.0 hpa

90 %

4.8 km/h aus 117

9.7 km/h aus SSW

10.6 C

12.3 C

12.2 C

12.3 C

22 W/m

0.00 mm

05:45

12.3 C

1018.3 hpa

91 %

6.4 km/h aus 117

11.3 km/h aus SSW

10.9 C

12.1 C

12.1 C

12.4 C

24 W/m

0.00 mm

05:50

12.4 C

1018.3 hpa

91 %

3.2 km/h aus 115

9.7 km/h aus SSW

11.0 C

12.5 C

12.4 C

12.5 C

26 W/m

0.00 mm

05:55

12.6 C

1018.3 hpa

91 %

3.2 km/h aus 115

8.0 km/h aus SSW

11.2 C

12.7 C

12.6 C

12.7 C

28 W/m

0.00 mm

06:00

12.7 C

1018.5 hpa

91 %

0.0 km/h aus 117

0.0 km/h aus ---

11.2 C

12.7 C

12.7 C

12.7 C

31 W/m

0.00 mm

06:05

12.7 C

1018.5 hpa

92 %

0.0 km/h aus 117

0.0 km/h aus ---

11.5 C

12.8 C

12.7 C

12.8 C

33 W/m

0.00 mm

06:10

12.8 C

1018.5 hpa

92 %

1.6 km/h aus 116

6.4 km/h aus SSW

11.6 C

12.9 C

12.8 C

12.9 C

52 W/m

0.00 mm

06:15

12.9 C

1018.5 hpa

92 %

0.0 km/h aus 117

4.8 km/h aus SSW

11.6 C

12.9 C

12.9 C

12.9 C

91 W/m

0.00 mm

06:20

13.0 C

1018.5 hpa

92 %

1.6 km/h aus 115

6.4 km/h aus SSW

11.7 C

13.1 C

13.0 C

13.1 C

103 W/m

0.00 mm

06:25

13.2 C

1018.5 hpa

92 %

0.0 km/h aus 115

4.8 km/h aus SSW

11.9 C

13.2 C

13.2 C

13.2 C

115 W/m

0.00 mm

06:30

13.3 C

1018.5 hpa

93 %

3.2 km/h aus 117

8.0 km/h aus SSW

12.2 C

13.4 C

13.3 C

13.4 C

126 W/m

0.00 mm

06:35

13.5 C

1018.5 hpa

93 %

1.6 km/h aus 117

6.4 km/h aus SSW

12.4 C

13.6 C

13.5 C

13.6 C

140 W/m

0.00 mm

06:40

13.7 C

1018.5 hpa

93 %

1.6 km/h aus 116

6.4 km/h aus SSW

12.6 C

13.8 C

13.7 C

13.8 C

154 W/m

0.00 mm

06:45

13.9 C

1018.5 hpa

93 %

1.6 km/h aus 115

6.4 km/h aus SSW

12.8 C

14.0 C

13.9 C

14.0 C

168 W/m

0.00 mm

06:50

14.0 C

1018.5 hpa

93 %

1.6 km/h aus 116

4.8 km/h aus SSW

12.9 C

14.1 C

14.0 C

14.1 C

181 W/m

0.00 mm

06:55

14.2 C

1018.5 hpa

93 %

1.6 km/h aus 117

6.4 km/h aus SSW

13.1 C

14.3 C

14.2 C

14.3 C

196 W/m

0.00 mm

07:00

14.3 C

1018.5 hpa

93 %

1.6 km/h aus 118

6.4 km/h aus SSW

13.2 C

14.4 C

14.3 C

14.4 C

208 W/m

0.00 mm

07:05

14.5 C

1018.5 hpa

93 %

4.8 km/h aus 117

9.7 km/h aus SSW

13.4 C

14.6 C

14.5 C

14.6 C

223 W/m

0.00 mm

07:10

14.6 C

1018.5 hpa

93 %

4.8 km/h aus 113

8.0 km/h aus SSW

13.5 C

14.7 C

14.6 C

14.7 C

244 W/m

0.00 mm

07:15

14.9 C

1018.5 hpa

93 %

4.8 km/h aus 117

8.0 km/h aus SSW

13.8 C

15.1 C

14.9 C

15.1 C

257 W/m

0.00 mm

07:20

15.1 C

1018.5 hpa

92 %

6.4 km/h aus 116

11.3 km/h aus SSW

13.8 C

15.3 C

15.1 C

15.3 C

270 W/m

0.00 mm

07:25

15.3 C

1018.5 hpa

92 %

8.0 km/h aus 116

11.3 km/h aus SSW

14.0 C

15.4 C

15.3 C

15.5 C

284 W/m

0.00 mm

07:30

15.4 C

1018.5 hpa

91 %

8.0 km/h aus 115

12.9 km/h aus S

13.9 C

15.5 C

15.3 C

15.6 C

298 W/m

0.00 mm

07:35

15.6 C

1018.5 hpa

91 %

4.8 km/h aus 115

9.7 km/h aus S

14.1 C

15.7 C

15.6 C

15.7 C

307 W/m

0.00 mm

07:40

15.7 C

1018.5 hpa

91 %

4.8 km/h aus 115

11.3 km/h aus S

14.3 C

15.9 C

15.7 C

15.9 C

320 W/m

0.00 mm

07:45

15.9 C

1018.4 hpa

90 %

9.7 km/h aus 117

16.1 km/h aus SSW

14.3 C

16.0 C

15.8 C

16.2 C

334 W/m

0.00 mm

07:50

16.2 C

1018.4 hpa

89 %

11.3 km/h aus 115

16.1 km/h aus S

14.4 C

16.1 C

15.8 C

16.4 C

344 W/m

0.00 mm

07:55

16.3 C

1018.4 hpa

88 %

8.0 km/h aus 115

17.7 km/h aus S

14.3 C

16.4 C

16.3 C

16.4 C

354 W/m

0.00 mm

08:00

16.4 C

1018.5 hpa

87 %

8.0 km/h aus 115

16.1 km/h aus S

14.3 C

16.6 C

16.4 C

16.6 C

369 W/m

0.00 mm

08:05

16.7 C

1018.5 hpa

86 %

9.7 km/h aus 118

17.7 km/h aus SSW

14.3 C

16.8 C

16.7 C

16.8 C

377 W/m

0.00 mm

08:10

16.7 C

1018.5 hpa

84 %

9.7 km/h aus 117

17.7 km/h aus S

13.9 C

16.8 C

16.7 C

16.8 C

395 W/m

0.00 mm

08:15

16.8 C

1018.5 hpa

84 %

3.2 km/h aus 115

11.3 km/h aus SSW

14.1 C

17.0 C

16.8 C

17.0 C

407 W/m

0.00 mm

08:20

17.2 C

1018.5 hpa

83 %

8.0 km/h aus 115

14.5 km/h aus SSW

14.3 C

17.4 C

17.2 C

17.4 C

409 W/m

0.00 mm

08:25

17.3 C

1018.5 hpa

82 %

8.0 km/h aus 117

16.1 km/h aus S

14.2 C

17.5 C

17.3 C

17.5 C

429 W/m

0.00 mm

08:30

17.4 C

1018.5 hpa

81 %

8.0 km/h aus 117

16.1 km/h aus SSW

14.1 C

17.6 C

17.4 C

17.6 C

447 W/m

0.00 mm

08:35

17.6 C

1018.5 hpa

80 %

6.4 km/h aus 116

14.5 km/h aus SSW

14.1 C

17.8 C

17.6 C

17.8 C

456 W/m

0.00 mm

08:40

17.7 C

1018.5 hpa

80 %

8.0 km/h aus 114

14.5 km/h aus SSW

14.2 C

17.9 C

17.7 C

17.9 C

464 W/m

0.00 mm

08:45

17.8 C

1018.5 hpa

80 %

8.0 km/h aus 116

14.5 km/h aus S

14.3 C

18.1 C

17.8 C

18.1 C

474 W/m

0.00 mm

08:50

18.1 C

1018.5 hpa

78 %

8.0 km/h aus 117

14.5 km/h aus SSW

14.2 C

18.4 C

18.1 C

18.4 C

486 W/m

0.00 mm

08:55

18.2 C

1018.5 hpa

77 %

8.0 km/h aus 117

17.7 km/h aus SSW

14.1 C

18.4 C

18.2 C

18.4 C

492 W/m

0.00 mm

09:00

18.4 C

1018.5 hpa

76 %

4.8 km/h aus 113

11.3 km/h aus SW

14.1 C

18.6 C

18.4 C

18.6 C

499 W/m

0.00 mm

09:05

18.4 C

1018.5 hpa

77 %

6.4 km/h aus 116

17.7 km/h aus SSW

14.3 C

18.7 C

18.4 C

18.7 C

506 W/m

0.00 mm

09:10

18.4 C

1018.5 hpa

77 %

8.0 km/h aus 118

17.7 km/h aus SSE

14.3 C

18.7 C

18.4 C

18.7 C

520 W/m

0.00 mm

09:15

18.7 C

1018.5 hpa

75 %

8.0 km/h aus 117

17.7 km/h aus SSW

14.2 C

18.9 C

18.7 C

18.9 C

528 W/m

0.00 mm

09:20

19.0 C

1018.5 hpa

73 %

6.4 km/h aus 116

16.1 km/h aus SSW

14.0 C

19.2 C

19.0 C

19.2 C

535 W/m

0.00 mm

09:25

19.2 C

1018.5 hpa

69 %

9.7 km/h aus 115

19.3 km/h aus SSW

13.4 C

19.3 C

19.2 C

19.3 C

543 W/m

0.00 mm

09:30

19.2 C

1018.5 hpa

71 %

4.8 km/h aus 116

11.3 km/h aus S

13.8 C

19.4 C

19.2 C

19.4 C

547 W/m

0.00 mm

09:35

19.2 C

1018.5 hpa

73 %

6.4 km/h aus 117

14.5 km/h aus SSW

14.3 C

19.5 C

19.2 C

19.5 C

554 W/m

0.00 mm

09:40

19.4 C

1018.5 hpa

69 %

4.8 km/h aus 117

16.1 km/h aus S

13.6 C

19.6 C

19.4 C

19.6 C

560 W/m

0.00 mm

09:45

19.3 C

1018.5 hpa

67 %

6.4 km/h aus 114

20.9 km/h aus SSW

13.0 C

19.3 C

19.3 C

19.3 C

565 W/m

0.00 mm

09:50

19.6 C

1018.5 hpa

68 %

9.7 km/h aus 116

19.3 km/h aus SW

13.5 C

19.8 C

19.6 C

19.8 C

575 W/m

0.00 mm

09:55

19.7 C

1018.5 hpa

67 %

8.0 km/h aus 117

19.3 km/h aus SSW

13.4 C

19.8 C

19.7 C

19.8 C

588 W/m

0.00 mm

10:00

19.9 C

1018.5 hpa

65 %

6.4 km/h aus 117

16.1 km/h aus SSW

13.1 C

20.0 C

19.9 C

20.0 C

599 W/m

0.00 mm

10:05

20.1 C

1018.5 hpa

65 %

8.0 km/h aus 115

22.5 km/h aus S

13.3 C

20.2 C

20.1 C

20.2 C

602 W/m

0.00 mm

10:10

20.1 C

1018.5 hpa

64 %

4.8 km/h aus 117

16.1 km/h aus WSW

13.1 C

20.1 C

20.1 C

20.1 C

581 W/m

0.00 mm

10:15

19.8 C

1018.5 hpa

65 %

4.8 km/h aus 117

16.1 km/h aus SW

13.0 C

19.8 C

19.8 C

19.8 C

440 W/m

0.00 mm

10:20

20.3 C

1018.5 hpa

66 %

3.2 km/h aus 116

9.7 km/h aus SW

13.7 C

20.3 C

20.3 C

20.3 C

625 W/m

0.00 mm

10:25

20.2 C

1018.5 hpa

62 %

3.2 km/h aus 116

8.0 km/h aus W

12.7 C

20.1 C

20.2 C

20.1 C

277 W/m

0.00 mm

10:30

20.3 C

1018.5 hpa

65 %

8.0 km/h aus 114

16.1 km/h aus S

13.5 C

20.3 C

20.3 C

20.3 C

622 W/m

0.00 mm

10:35

20.9 C

1018.5 hpa

62 %

8.0 km/h aus 117

20.9 km/h aus WSW

13.3 C

20.6 C

20.9 C

20.6 C

625 W/m

0.00 mm

10:40

20.4 C

1018.5 hpa

62 %

4.8 km/h aus 116

9.7 km/h aus W

12.9 C

20.3 C

20.4 C

20.3 C

496 W/m

0.00 mm

10:45

20.0 C

1018.5 hpa

62 %

6.4 km/h aus 117

14.5 km/h aus SSW

12.5 C

19.9 C

20.0 C

19.9 C

285 W/m

0.00 mm

10:50

20.5 C

1018.5 hpa

61 %

3.2 km/h aus 114

9.7 km/h aus SW

12.7 C

20.2 C

20.5 C

20.2 C

624 W/m

0.00 mm

10:55

21.1 C

1018.5 hpa

58 %

6.4 km/h aus 116

20.9 km/h aus SSW

12.5 C

20.5 C

21.1 C

20.5 C

628 W/m

0.00 mm

11:00

20.9 C

1018.4 hpa

59 %

4.8 km/h aus 116

17.7 km/h aus SSW

12.6 C

20.5 C

20.9 C

20.5 C

607 W/m

0.00 mm

11:05

20.7 C

1018.4 hpa

59 %

8.0 km/h aus 116

16.1 km/h aus SSW

12.4 C

20.3 C

20.7 C

20.3 C

440 W/m

0.00 mm

11:10

21.2 C

1018.4 hpa

59 %

4.8 km/h aus 115

14.5 km/h aus SSW

12.8 C

20.7 C

21.2 C

20.7 C

621 W/m

0.00 mm

11:15

20.9 C

1018.4 hpa

57 %

4.8 km/h aus 116

14.5 km/h aus SW

12.1 C

20.4 C

20.9 C

20.4 C

426 W/m

0.00 mm

11:20

20.5 C

1018.4 hpa

58 %

3.2 km/h aus 117

11.3 km/h aus WSW

12.0 C

20.1 C

20.5 C

20.1 C

314 W/m

0.00 mm

11:25

20.3 C

1018.4 hpa

61 %

3.2 km/h aus 117

9.7 km/h aus S

12.6 C

20.1 C

20.3 C

20.1 C

416 W/m

0.00 mm

11:30

20.8 C

1018.4 hpa

58 %

4.8 km/h aus 114

9.7 km/h aus SW

12.3 C

20.3 C

20.8 C

20.3 C

417 W/m

0.00 mm

11:35

21.3 C

1018.4 hpa

58 %

6.4 km/h aus 115

17.7 km/h aus S

12.7 C

20.8 C

21.3 C

20.8 C

475 W/m

0.00 mm

11:40

22.2 C

1018.4 hpa

53 %

9.7 km/h aus 116

19.3 km/h aus S

12.2 C

21.8 C

22.2 C

21.8 C

634 W/m

0.00 mm

11:45

21.8 C

1018.3 hpa

56 %

1.6 km/h aus 116

9.7 km/h aus SSW

12.6 C

21.3 C

21.8 C

21.3 C

633 W/m

0.00 mm

11:50

21.6 C

1018.3 hpa

53 %

8.0 km/h aus 115

16.1 km/h aus SSW

11.6 C

20.9 C

21.6 C

20.9 C

446 W/m

0.00 mm

11:55

22.2 C

1018.3 hpa

53 %

11.3 km/h aus 115

17.7 km/h aus SSW

12.2 C

21.8 C

22.2 C

21.8 C

633 W/m

0.00 mm

12:00

22.5 C

1018.2 hpa

54 %

6.4 km/h aus 116

16.1 km/h aus SSW

12.7 C

22.3 C

22.5 C

22.3 C

625 W/m

0.00 mm

12:05

22.4 C

1018.2 hpa

53 %

6.4 km/h aus 116

14.5 km/h aus SSW

12.4 C

22.2 C

22.4 C

22.2 C

624 W/m

0.00 mm

12:10

22.7 C

1018.2 hpa

50 %

6.4 km/h aus 117

17.7 km/h aus W

11.7 C

22.3 C

22.7 C

22.3 C

629 W/m

0.00 mm

12:15

22.1 C

1018.2 hpa

52 %

4.8 km/h aus 113

9.7 km/h aus W

11.8 C

21.7 C

22.1 C

21.7 C

424 W/m

0.00 mm

12:20

22.1 C

1018.2 hpa

52 %

6.4 km/h aus 117

14.5 km/h aus WSW

11.7 C

21.6 C

22.1 C

21.6 C

361 W/m

0.00 mm

12:25

21.6 C

1018.2 hpa

53 %

4.8 km/h aus 117

14.5 km/h aus SSW

11.6 C

20.9 C

21.6 C

20.9 C

260 W/m

0.00 mm

12:30

21.7 C

1018.2 hpa

55 %

4.8 km/h aus 117

12.9 km/h aus SSW

12.2 C

21.1 C

21.7 C

21.1 C

405 W/m

0.00 mm

12:35

22.4 C

1018.2 hpa

52 %

8.0 km/h aus 114

17.7 km/h aus SSW

12.1 C

22.1 C

22.4 C

22.1 C

651 W/m

0.00 mm

12:40

23.7 C

1018.2 hpa

50 %

8.0 km/h aus 113

17.7 km/h aus S

12.7 C

23.7 C

23.7 C

23.7 C

653 W/m

0.00 mm

12:45

23.3 C

1018.0 hpa

50 %

6.4 km/h aus 117

16.1 km/h aus S

12.3 C

23.1 C

23.3 C

23.1 C

641 W/m

0.00 mm

12:50

23.3 C

1018.0 hpa

53 %

4.8 km/h aus 116

16.1 km/h aus SSW

13.2 C

23.3 C

23.3 C

23.3 C

638 W/m

0.00 mm

12:55

22.8 C

1018.0 hpa

50 %

11.3 km/h aus 116

17.7 km/h aus S

11.9 C

22.6 C

22.8 C

22.6 C

345 W/m

0.00 mm

13:00

21.7 C

1018.0 hpa

49 %

4.8 km/h aus 114

16.1 km/h aus SSW

10.5 C

20.9 C

21.7 C

20.9 C

196 W/m

0.00 mm

13:05

21.3 C

1018.0 hpa

52 %

0.0 km/h aus 117

0.0 km/h aus ---

11.0 C

20.5 C

21.3 C

20.5 C

278 W/m

0.00 mm

13:10

22.4 C

1018.0 hpa

51 %

0.0 km/h aus 117

3.2 km/h aus W

11.8 C

22.1 C

22.4 C

22.1 C

663 W/m

0.00 mm

13:15

22.9 C

1017.9 hpa

49 %

8.0 km/h aus 117

19.3 km/h aus SW

11.7 C

22.7 C

22.9 C

22.7 C

646 W/m

0.00 mm

13:20

22.2 C

1017.9 hpa

52 %

4.8 km/h aus 113

11.3 km/h aus S

11.8 C

21.7 C

22.2 C

21.7 C

208 W/m

0.00 mm

13:25

22.1 C

1017.9 hpa

51 %

1.6 km/h aus 116

6.4 km/h aus SSW

11.5 C

21.6 C

22.1 C

21.6 C

282 W/m

0.00 mm

13:30

22.3 C

1017.6 hpa

52 %

0.0 km/h aus 115

4.8 km/h aus SSW

11.9 C

21.9 C

22.3 C

21.9 C

508 W/m

0.00 mm

13:35

23.1 C

1017.6 hpa

50 %

0.0 km/h aus 117

6.4 km/h aus SSW

12.1 C

22.9 C

23.1 C

22.9 C

654 W/m

0.00 mm

13:40

23.6 C

1017.6 hpa

47 %

1.6 km/h aus 115

6.4 km/h aus W

11.6 C

23.4 C

23.6 C

23.4 C

640 W/m

0.00 mm

13:45

23.4 C

1017.5 hpa

47 %

1.6 km/h aus 114

9.7 km/h aus WSW

11.5 C

23.2 C

23.4 C

23.2 C

635 W/m

0.00 mm

13:50

23.7 C

1017.5 hpa

47 %

8.0 km/h aus 115

16.1 km/h aus S

11.7 C

23.6 C

23.7 C

23.6 C

630 W/m

0.00 mm

13:55

23.9 C

1017.5 hpa

46 %

4.8 km/h aus 117

16.1 km/h aus S

11.6 C

23.8 C

23.9 C

23.8 C

630 W/m

0.00 mm

14:00

23.6 C

1017.4 hpa

44 %

9.7 km/h aus 116

17.7 km/h aus S

10.6 C

23.2 C

23.6 C

23.2 C

631 W/m

0.00 mm

14:05

23.7 C

1017.4 hpa

46 %

3.2 km/h aus 114

9.7 km/h aus SSW

11.4 C

23.6 C

23.7 C

23.6 C

626 W/m

0.00 mm

14:10

24.4 C

1017.4 hpa

47 %

4.8 km/h aus 114

16.1 km/h aus S

12.3 C

24.3 C

24.4 C

24.3 C

627 W/m

0.00 mm

14:15

23.7 C

1017.4 hpa

46 %

8.0 km/h aus 117

19.3 km/h aus S

11.4 C

23.6 C

23.7 C

23.6 C

388 W/m

0.00 mm

14:20

22.6 C

1017.4 hpa

45 %

4.8 km/h aus 116

16.1 km/h aus S

10.0 C

21.9 C

22.6 C

21.9 C

219 W/m

0.00 mm

14:25

22.1 C

1017.4 hpa

49 %

1.6 km/h aus 115

4.8 km/h aus SSW

10.9 C

21.5 C

22.1 C

21.5 C

414 W/m

0.00 mm

14:30

23.9 C

1017.4 hpa

45 %

3.2 km/h aus 116

19.3 km/h aus SSW

11.2 C

23.7 C

23.9 C

23.7 C

653 W/m

0.00 mm

14:35

24.1 C

1017.4 hpa

45 %

8.0 km/h aus 116

17.7 km/h aus SW

11.4 C

23.9 C

24.1 C

23.9 C

639 W/m

0.00 mm

14:40

24.4 C

1017.4 hpa

42 %

3.2 km/h aus 117

11.3 km/h aus WNW

10.7 C

24.1 C

24.4 C

24.1 C

634 W/m

0.00 mm

14:45

24.4 C

1017.1 hpa

41 %

4.8 km/h aus 115

19.3 km/h aus S

10.3 C

23.9 C

24.4 C

23.9 C

629 W/m

0.00 mm

14:50

24.3 C

1017.1 hpa

44 %

3.2 km/h aus 116

16.1 km/h aus SW

11.3 C

24.1 C

24.3 C

24.1 C

625 W/m

0.00 mm

14:55

24.3 C

1017.1 hpa

41 %

4.8 km/h aus 117

16.1 km/h aus SSW

10.2 C

23.9 C

24.3 C

23.9 C

629 W/m

0.00 mm

15:00

24.4 C

1016.9 hpa

40 %

6.4 km/h aus 117

19.3 km/h aus SSW

10.0 C

23.9 C

24.4 C

23.9 C

627 W/m

0.00 mm

15:05

24.4 C

1016.9 hpa

45 %

4.8 km/h aus 113

14.5 km/h aus SSE

11.7 C

24.2 C

24.4 C

24.2 C

627 W/m

0.00 mm

15:10

24.7 C

1016.9 hpa

42 %

4.8 km/h aus 112

12.9 km/h aus SE

10.9 C

24.3 C

24.7 C

24.3 C

572 W/m

0.00 mm

15:15

23.9 C

1016.9 hpa

43 %

1.6 km/h aus 115

9.7 km/h aus SW

10.6 C

23.7 C

23.9 C

23.7 C

640 W/m

0.00 mm

15:20

24.0 C

1016.9 hpa

44 %

6.4 km/h aus 116

14.5 km/h aus SSW

11.0 C

23.8 C

24.0 C

23.8 C

629 W/m

0.00 mm

15:25

24.3 C

1016.9 hpa

45 %

3.2 km/h aus 115

14.5 km/h aus S

11.6 C

24.1 C

24.3 C

24.1 C

620 W/m

0.00 mm

15:30

24.7 C

1016.6 hpa

41 %

4.8 km/h aus 116

12.9 km/h aus W

10.6 C

24.3 C

24.7 C

24.3 C

610 W/m

0.00 mm

15:35

25.1 C

1016.6 hpa

40 %

6.4 km/h aus 116

11.3 km/h aus SSW

10.6 C

24.7 C

25.1 C

24.7 C

609 W/m

0.00 mm

15:40

24.7 C

1016.6 hpa

41 %

1.6 km/h aus 116

8.0 km/h aus WSW

10.6 C

24.3 C

24.7 C

24.3 C

608 W/m

0.00 mm

15:45

23.8 C

1016.4 hpa

41 %

1.6 km/h aus 116

8.0 km/h aus WNW

9.8 C

23.4 C

23.8 C

23.4 C

147 W/m

0.00 mm

15:50

23.2 C

1016.4 hpa

44 %

1.6 km/h aus 115

6.4 km/h aus NW

10.3 C

22.8 C

23.2 C

22.8 C

160 W/m

0.00 mm

15:55

23.1 C

1016.4 hpa

46 %

3.2 km/h aus 115

9.7 km/h aus NNW

10.8 C

22.7 C

23.1 C

22.7 C

299 W/m

0.00 mm

16:00

23.8 C

1016.4 hpa

47 %

0.0 km/h aus 117

3.2 km/h aus NW

11.8 C

23.7 C

23.8 C

23.7 C

619 W/m

0.00 mm

16:05

24.6 C

1016.4 hpa

40 %

6.4 km/h aus 115

16.1 km/h aus S

10.1 C

24.1 C

24.6 C

24.1 C

609 W/m

0.00 mm

16:10

24.7 C

1016.4 hpa

40 %

8.0 km/h aus 114

19.3 km/h aus SSW

10.2 C

24.2 C

24.7 C

24.2 C

594 W/m

0.00 mm

16:15

24.6 C

1016.5 hpa

43 %

6.4 km/h aus 117

16.1 km/h aus S

11.1 C

24.2 C

24.6 C

24.2 C

594 W/m

0.00 mm

16:20

25.1 C

1016.5 hpa

42 %

4.8 km/h aus 114

14.5 km/h aus S

11.3 C

24.7 C

25.1 C

24.7 C

593 W/m

0.00 mm

16:25

24.7 C

1016.5 hpa

38 %

6.4 km/h aus 115

11.3 km/h aus SSW

9.4 C

24.2 C

24.7 C

24.2 C

582 W/m

0.00 mm

16:30

24.8 C

1016.4 hpa

39 %

8.0 km/h aus 112

16.1 km/h aus SW

9.9 C

24.3 C

24.8 C

24.3 C

579 W/m

0.00 mm

16:35

24.9 C

1016.4 hpa

39 %

3.2 km/h aus 118

9.7 km/h aus W

10.0 C

24.4 C

24.9 C

24.4 C

493 W/m

0.00 mm

16:40

23.8 C

1016.4 hpa

42 %

0.0 km/h aus 117

6.4 km/h aus WSW

10.1 C

23.4 C

23.8 C

23.4 C

161 W/m

0.00 mm

16:45

23.5 C

1016.4 hpa

41 %

1.6 km/h aus 116

4.8 km/h aus WSW

9.5 C

23.1 C

23.5 C

23.1 C

149 W/m

0.00 mm

16:50

23.2 C

1016.4 hpa

42 %

1.6 km/h aus 113

6.4 km/h aus WSW

9.6 C

22.7 C

23.2 C

22.7 C

139 W/m

0.00 mm

16:55

22.9 C

1016.4 hpa

45 %

0.0 km/h aus 113

4.8 km/h aus WSW

10.4 C

22.5 C

22.9 C

22.5 C

161 W/m

0.00 mm

17:00

23.1 C

1016.3 hpa

43 %

0.0 km/h aus 116

4.8 km/h aus WSW

9.8 C

22.6 C

23.1 C

22.6 C

443 W/m

0.00 mm

17:05

23.6 C

1016.3 hpa

44 %

0.0 km/h aus 117

0.0 km/h aus ---

10.6 C

23.3 C

23.6 C

23.3 C

145 W/m

0.00 mm

17:10

23.4 C

1016.3 hpa

44 %

1.6 km/h aus 115

6.4 km/h aus W

10.5 C

23.1 C

23.4 C

23.1 C

136 W/m

0.00 mm

17:15

23.9 C

1016.0 hpa

42 %

0.0 km/h aus 114

4.8 km/h aus S

10.2 C

23.6 C

23.9 C

23.6 C

573 W/m

0.00 mm

17:20

24.4 C

1016.0 hpa

41 %

0.0 km/h aus 117

3.2 km/h aus NW

10.3 C

24.0 C

24.4 C

24.0 C

564 W/m

0.00 mm

17:25

24.6 C

1016.0 hpa

41 %

0.0 km/h aus 117

0.0 km/h aus ---

10.4 C

24.1 C

24.6 C

24.1 C

554 W/m

0.00 mm

17:30

24.3 C

1015.8 hpa

40 %

0.0 km/h aus 113

0.0 km/h aus ---

9.8 C

23.8 C

24.3 C

23.8 C

544 W/m

0.00 mm

17:35

24.7 C

1015.8 hpa

40 %

1.6 km/h aus 117

8.0 km/h aus WSW

10.2 C

24.2 C

24.7 C

24.2 C

531 W/m

0.00 mm

17:40

25.1 C

1015.8 hpa

39 %

3.2 km/h aus 117

8.0 km/h aus WSW

10.2 C

24.6 C

25.1 C

24.6 C

522 W/m

0.00 mm

17:45

24.9 C

1015.7 hpa

39 %

1.6 km/h aus 117

6.4 km/h aus NNW

10.0 C

24.4 C

24.9 C

24.4 C

515 W/m

0.00 mm

17:50

24.4 C

1015.7 hpa

41 %

1.6 km/h aus 115

8.0 km/h aus N

10.3 C

23.9 C

24.4 C

23.9 C

383 W/m

0.00 mm

17:55

24.2 C

1015.7 hpa

42 %

4.8 km/h aus 113

8.0 km/h aus NNW

10.5 C

23.8 C

24.2 C

23.8 C

495 W/m

0.00 mm

18:00

24.3 C

1015.6 hpa

43 %

3.2 km/h aus 117

8.0 km/h aus NW

10.9 C

24.0 C

24.3 C

24.0 C

500 W/m

0.00 mm

18:05

24.1 C

1015.6 hpa

42 %

4.8 km/h aus 115

9.7 km/h aus NNW

10.4 C

23.8 C

24.1 C

23.8 C

480 W/m

0.00 mm

18:10

24.1 C

1015.6 hpa

43 %

4.8 km/h aus 116

8.0 km/h aus NW

10.7 C

23.8 C

24.1 C

23.8 C

461 W/m

0.00 mm

18:15

24.1 C

1015.8 hpa

42 %

4.8 km/h aus 114

8.0 km/h aus NNW

10.4 C

23.8 C

24.1 C

23.8 C

462 W/m

0.00 mm

18:20

24.4 C

1015.8 hpa

42 %

0.0 km/h aus 117

4.8 km/h aus NNW

10.6 C

24.0 C

24.4 C

24.0 C

443 W/m

0.00 mm

18:25

24.1 C

1015.8 hpa

42 %

4.8 km/h aus 116

8.0 km/h aus NW

10.3 C

23.7 C

24.1 C

23.7 C

398 W/m

0.00 mm

18:30

23.9 C

1015.6 hpa

41 %

4.8 km/h aus 117

8.0 km/h aus NNW

9.9 C

23.6 C

23.9 C

23.6 C

377 W/m

0.00 mm

18:35

24.0 C

1015.6 hpa

43 %

4.8 km/h aus 112

9.7 km/h aus NNW

10.6 C

23.7 C

24.0 C

23.7 C

362 W/m

0.00 mm

18:40

23.8 C

1015.6 hpa

43 %

1.6 km/h aus 118

8.0 km/h aus NNW

10.4 C

23.5 C

23.8 C

23.5 C

347 W/m

0.00 mm

18:45

23.7 C

1015.4 hpa

42 %

3.2 km/h aus 116

8.0 km/h aus NW

10.0 C

23.3 C

23.7 C

23.3 C

336 W/m

0.00 mm

18:50

23.6 C

1015.4 hpa

44 %

1.6 km/h aus 115

8.0 km/h aus NW

10.6 C

23.3 C

23.6 C

23.3 C

320 W/m

0.00 mm

18:55

23.7 C

1015.4 hpa

42 %

1.6 km/h aus 115

6.4 km/h aus NW

10.0 C

23.3 C

23.7 C

23.3 C

108 W/m

0.00 mm

19:00

23.7 C

1015.3 hpa

43 %

3.2 km/h aus 116

8.0 km/h aus NW

10.4 C

23.4 C

23.7 C

23.4 C

51 W/m

0.00 mm

19:05

23.8 C

1015.3 hpa

42 %

0.0 km/h aus 117

3.2 km/h aus WNW

10.1 C

23.4 C

23.8 C

23.4 C

50 W/m

0.00 mm

19:10

23.7 C

1015.3 hpa

43 %

3.2 km/h aus 116

6.4 km/h aus WNW

10.4 C

23.4 C

23.7 C

23.4 C

49 W/m

0.00 mm

19:15

23.7 C

1015.3 hpa

43 %

0.0 km/h aus 115

1.6 km/h aus WNW

10.4 C

23.4 C

23.7 C

23.4 C

49 W/m

0.00 mm

19:20

23.7 C

1015.3 hpa

43 %

1.6 km/h aus 115

6.4 km/h aus WNW

10.4 C

23.4 C

23.7 C

23.4 C

47 W/m

0.00 mm

19:25

23.7 C

1015.3 hpa

42 %

0.0 km/h aus 117

3.2 km/h aus WNW

10.0 C

23.3 C

23.7 C

23.3 C

47 W/m

0.00 mm

19:30

23.6 C

1015.2 hpa

44 %

0.0 km/h aus 116

0.0 km/h aus ---

10.6 C

23.3 C

23.6 C

23.3 C

46 W/m

0.00 mm

19:35

23.6 C

1015.2 hpa

44 %

0.0 km/h aus 115

3.2 km/h aus WNW

10.6 C

23.2 C

23.6 C

23.2 C

48 W/m

0.00 mm

19:40

23.5 C

1015.2 hpa

44 %

1.6 km/h aus 114

8.0 km/h aus NE

10.5 C

23.2 C

23.5 C

23.2 C

48 W/m

0.00 mm

19:45

23.4 C

1015.2 hpa

43 %

3.2 km/h aus 118

6.4 km/h aus NE

10.1 C

23.1 C

23.4 C

23.1 C

45 W/m

0.00 mm

19:50

23.4 C

1015.2 hpa

44 %

3.2 km/h aus 117

8.0 km/h aus NNE

10.4 C

23.1 C

23.4 C

23.1 C

43 W/m

0.00 mm

19:55

23.3 C

1015.2 hpa

44 %

3.2 km/h aus 115

6.4 km/h aus NNE

10.4 C

22.9 C

23.3 C

22.9 C

44 W/m

0.00 mm

20:00

23.3 C

1015.3 hpa

45 %

4.8 km/h aus 114

14.5 km/h aus NNE

10.7 C

22.9 C

23.3 C

22.9 C

47 W/m

0.00 mm

20:05

23.1 C

1015.3 hpa

45 %

4.8 km/h aus 116

12.9 km/h aus ENE

10.5 C

22.7 C

23.1 C

22.7 C

44 W/m

0.00 mm

20:10

23.1 C

1015.3 hpa

46 %

3.2 km/h aus 116

8.0 km/h aus NNE

10.8 C

22.7 C

23.1 C

22.7 C

37 W/m

0.00 mm

20:15

22.9 C

1015.3 hpa

46 %

3.2 km/h aus 114

8.0 km/h aus NE

10.7 C

22.6 C

22.9 C

22.6 C

34 W/m

0.00 mm

20:20

22.8 C

1015.3 hpa

47 %

1.6 km/h aus 114

6.4 km/h aus NE

10.9 C

22.4 C

22.8 C

22.4 C

33 W/m

0.00 mm

20:25

22.8 C

1015.3 hpa

47 %

3.2 km/h aus 117

8.0 km/h aus NNE

10.9 C

22.4 C

22.8 C

22.4 C

30 W/m

0.00 mm

20:30

22.7 C

1015.2 hpa

48 %

1.6 km/h aus 117

6.4 km/h aus NNE

11.1 C

22.3 C

22.7 C

22.3 C

29 W/m

0.00 mm

20:35

22.6 C

1015.2 hpa

49 %

1.6 km/h aus 117

6.4 km/h aus NNE

11.3 C

22.2 C

22.6 C

22.2 C

27 W/m

0.00 mm

20:40

22.4 C

1015.2 hpa

49 %

0.0 km/h aus 114

4.8 km/h aus NNE

11.2 C

22.0 C

22.4 C

22.0 C

25 W/m

0.00 mm

20:45

22.3 C

1015.2 hpa

49 %

0.0 km/h aus 116

4.8 km/h aus NNE

11.1 C

21.8 C

22.3 C

21.8 C

24 W/m

0.00 mm

20:50

22.2 C

1015.2 hpa

50 %

0.0 km/h aus 117

0.0 km/h aus ---

11.3 C

21.7 C

22.2 C

21.7 C

22 W/m

0.00 mm

20:55

22.1 C

1015.2 hpa

50 %

0.0 km/h aus 117

0.0 km/h aus ---

11.2 C

21.6 C

22.1 C

21.6 C

21 W/m

0.00 mm

21:00

22.1 C

1015.1 hpa

50 %

0.0 km/h aus 115

0.0 km/h aus ---

11.1 C

21.4 C

22.1 C

21.4 C

19 W/m

0.00 mm

21:05

21.9 C

1015.1 hpa

51 %

0.0 km/h aus 115

3.2 km/h aus NNE

11.3 C

21.3 C

21.9 C

21.3 C

18 W/m

0.00 mm

21:10

21.8 C

1015.1 hpa

51 %

0.0 km/h aus 116

0.0 km/h aus ---

11.2 C

21.1 C

21.8 C

21.1 C

17 W/m

0.00 mm

21:15

21.7 C

1014.9 hpa

52 %

0.0 km/h aus 117

0.0 km/h aus ---

11.4 C

21.0 C

21.7 C

21.0 C

15 W/m

0.00 mm

21:20

21.6 C

1014.9 hpa

52 %

0.0 km/h aus 116

0.0 km/h aus ---

11.3 C

20.8 C

21.6 C

20.8 C

13 W/m

0.00 mm

21:25

21.4 C

1014.9 hpa

53 %

0.0 km/h aus 113

0.0 km/h aus ---

11.4 C

20.7 C

21.4 C

20.7 C

12 W/m

0.00 mm

21:30

21.3 C

1015.0 hpa

53 %

0.0 km/h aus 116

0.0 km/h aus ---

11.3 C

20.5 C

21.3 C

20.5 C

10 W/m

0.00 mm

21:35

21.1 C

1015.0 hpa

53 %

0.0 km/h aus 117

0.0 km/h aus ---

11.1 C

20.3 C

21.1 C

20.3 C

9 W/m

0.00 mm

21:40

20.9 C

1015.0 hpa

54 %

0.0 km/h aus 115

0.0 km/h aus ---

11.2 C

20.2 C

20.9 C

20.2 C

7 W/m

0.00 mm

21:45

20.7 C

1015.2 hpa

55 %

0.0 km/h aus 113

0.0 km/h aus ---

11.4 C

20.1 C

20.7 C

20.1 C

5 W/m

0.00 mm

21:50

20.5 C

1015.2 hpa

56 %

0.0 km/h aus 117

0.0 km/h aus ---

11.4 C

20.0 C

20.5 C

20.0 C

5 W/m

0.00 mm

21:55

20.3 C

1015.2 hpa

57 %

0.0 km/h aus 117

0.0 km/h aus ---

11.5 C

19.9 C

20.3 C

19.9 C

2 W/m

0.00 mm

22:00

20.2 C

1015.2 hpa

57 %

0.0 km/h aus 117

0.0 km/h aus ---

11.4 C

19.8 C

20.2 C

19.8 C

0 W/m

0.00 mm

22:05

19.9 C

1015.2 hpa

58 %

0.0 km/h aus 115

0.0 km/h aus ---

11.4 C

19.6 C

19.9 C

19.6 C

0 W/m

0.00 mm

22:10

19.7 C

1015.2 hpa

59 %

0.0 km/h aus 115

0.0 km/h aus ---

11.4 C

19.4 C

19.7 C

19.4 C

0 W/m

0.00 mm

22:15

19.4 C

1015.2 hpa

60 %

0.0 km/h aus 117

0.0 km/h aus ---

11.5 C

19.2 C

19.4 C

19.2 C

0 W/m

0.00 mm

22:20

19.2 C

1015.2 hpa

60 %

0.0 km/h aus 116

0.0 km/h aus ---

11.3 C

18.9 C

19.2 C

18.9 C

0 W/m

0.00 mm

22:25

19.0 C

1015.2 hpa

61 %

0.0 km/h aus 117

0.0 km/h aus ---

11.3 C

18.7 C

19.0 C

18.7 C

0 W/m

0.00 mm

22:30

18.8 C

1015.3 hpa

61 %

0.0 km/h aus 114

0.0 km/h aus ---

11.1 C

18.4 C

18.8 C

18.4 C

0 W/m

0.00 mm

22:35

18.5 C

1015.3 hpa

63 %

0.0 km/h aus 116

0.0 km/h aus ---

11.3 C

18.2 C

18.5 C

18.2 C

0 W/m

0.00 mm

22:40

18.3 C

1015.3 hpa

63 %

0.0 km/h aus 117

0.0 km/h aus ---

11.1 C

18.0 C

18.3 C

18.0 C

0 W/m

0.00 mm

22:45

18.1 C

1015.3 hpa

64 %

0.0 km/h aus 117

0.0 km/h aus ---

11.1 C

17.8 C

18.1 C

17.8 C

0 W/m

0.00 mm

22:50

17.8 C

1015.3 hpa

65 %

0.0 km/h aus 116

0.0 km/h aus ---

11.2 C

17.6 C

17.8 C

17.6 C

0 W/m

0.00 mm

22:55

17.7 C

1015.3 hpa

66 %

1.6 km/h aus 115

4.8 km/h aus NNE

11.2 C

17.4 C

17.7 C

17.4 C

0 W/m

0.00 mm

23:00

17.5 C

1015.3 hpa

66 %

0.0 km/h aus 116

4.8 km/h aus NNE

11.1 C

17.2 C

17.5 C

17.2 C

0 W/m

0.00 mm

23:05

17.4 C

1015.3 hpa

67 %

1.6 km/h aus 117

4.8 km/h aus NNE

11.2 C

17.1 C

17.4 C

17.1 C

0 W/m

0.00 mm

23:10

17.3 C

1015.3 hpa

68 %

0.0 km/h aus 115

4.8 km/h aus NNE

11.3 C

17.1 C

17.3 C

17.1 C

0 W/m

0.00 mm

23:15

17.2 C

1015.4 hpa

68 %

0.0 km/h aus 115

0.0 km/h aus ---

11.2 C

16.9 C

17.2 C

16.9 C

0 W/m

0.00 mm

23:20

17.1 C

1015.4 hpa

68 %

0.0 km/h aus 116

4.8 km/h aus NNE

11.1 C

16.8 C

17.1 C

16.8 C

0 W/m

0.00 mm

23:25

17.0 C

1015.4 hpa

69 %

1.6 km/h aus 117

4.8 km/h aus NNE

11.3 C

16.8 C

17.0 C

16.8 C

0 W/m

0.00 mm

23:30

16.9 C

1015.4 hpa

70 %

0.0 km/h aus 117

0.0 km/h aus ---

11.4 C

16.7 C

16.9 C

16.7 C

0 W/m

0.00 mm

23:35

16.9 C

1015.4 hpa

70 %

1.6 km/h aus 115

3.2 km/h aus NNE

11.4 C

16.7 C

16.9 C

16.7 C

0 W/m

0.00 mm

23:40

16.8 C

1015.4 hpa

70 %

0.0 km/h aus 115

1.6 km/h aus NNE

11.3 C

16.5 C

16.8 C

16.5 C

0 W/m

0.00 mm

23:45

16.7 C

1015.5 hpa

70 %

0.0 km/h aus 117

0.0 km/h aus ---

11.2 C

16.4 C

16.7 C

16.4 C

0 W/m

0.00 mm

23:50

16.6 C

1015.5 hpa

71 %

0.0 km/h aus 116

0.0 km/h aus ---

11.3 C

16.4 C

16.6 C

16.4 C

0 W/m

0.00 mm

23:55

16.5 C

1015.5 hpa

71 %

0.0 km/h aus 118

0.0 km/h aus ---

11.2 C

16.2 C

16.5 C

16.2 C

0 W/m

0.00 mm